QPF
0.01 0.01 0.02 0.03 0.03 0.03 0.03 0.02 0.03 0.02 0.02 0.02 0.02 0.03 0.04 0.04 0.04 0.04 0.03 0.03 0.02 0.02 0.03 0.03 0.02 0.02 0.02 0.02 0.02 0.02 0.03 0.03 0.02 0.01 0.01 0.01 0.03 0.03 0.02 0.01 0.01 0.01 0.01
0.01 0.02 0.02 0.03 0.03 0.04 0.03 0.02 0.02 0.02 0.01 0.02 0.02 0.02 0.02 0.03 0.05 0.05 0.04 0.03 0.03 0.03 0.02 0.02 0.02 0.02 0.03 0.04 0.03 0.03 0.03 0.04 0.03 0.02 0.01 0.01 0.02 0.03 0.03 0.02 0.01 0.01 0.01
0.01 0.02 0.02 0.03 0.04 0.04 0.04 0.02 0.02 0.02 0.01 0.00 0.01 0.02 0.02 0.02 0.02 0.03 0.05 0.05 0.04 0.03 0.03 0.02 0.02 0.03 0.03 0.04 0.04 0.04 0.04 0.05 0.04 0.02 0.01 0.01 0.01 0.03 0.03 0.02 0.02 0.02 0.01
0.01 0.02 0.02 0.03 0.05 0.05 0.04 0.03 0.02 0.02 0.01 0.00 0.01 0.01 0.02 0.03 0.03 0.02 0.03 0.04 0.04 0.03 0.02 0.02 0.02 0.03 0.03 0.04 0.04 0.04 0.04 0.04 0.03 0.03 0.03 0.02 0.02 0.03 0.02 0.01 0.02 0.03 0.03
0.01 0.02 0.02 0.04 0.06 0.06 0.05 0.04 0.02 0.01 0.01 0.01 0.01 0.02 0.02 0.02 0.03 0.04 0.02 0.02 0.02 0.03 0.03 0.02 0.02 0.02 0.03 0.04 0.05 0.05 0.04 0.03 0.03 0.03 0.03 0.03 0.02 0.02 0.01 0.01 0.01 0.02 0.04
0.01 0.01 0.02 0.02 0.04 0.06 0.06 0.06 0.04 0.03 0.02 0.02 0.01 0.02 0.03 0.03 0.03 0.04 0.03 0.03 0.02 0.03 0.03 0.02 0.02 0.02 0.02 0.03 0.03 0.04 0.04 0.03 0.03 0.03 0.04 0.03 0.03 0.02 0.02 0.02 0.02 0.02 0.02
0.01 0.01 0.02 0.02 0.03 0.04 0.05 0.06 0.05 0.04 0.03 0.03 0.02 0.03 0.03 0.04 0.05 0.04 0.03 0.03 0.03 0.02 0.02 0.02 0.02 0.02 0.03 0.03 0.03 0.03 0.04 0.04 0.04 0.04 0.04 0.04 0.04 0.05 0.04 0.03 0.02 0.02 0.01
0.01 0.02 0.02 0.03 0.03 0.04 0.04 0.06 0.06 0.05 0.04 0.04 0.03 0.03 0.02 0.03 0.05 0.05 0.03 0.03 0.02 0.02 0.02 0.02 0.01 0.01 0.02 0.02 0.02 0.02 0.03 0.04 0.05 0.05 0.04 0.04 0.05 0.06 0.05 0.04 0.03 0.02 0.02
0.03 0.03 0.02 0.03 0.03 0.03 0.04 0.04 0.05 0.06 0.05 0.04 0.03 0.02 0.03 0.03 0.03 0.04 0.03 0.02 0.01 0.01 0.01 0.01 0.01 0.02 0.02 0.02 0.02 0.03 0.04 0.04 0.05 0.05 0.04 0.04 0.04 0.04 0.04 0.04 0.04 0.04 0.04
0.04 0.03 0.03 0.03 0.03 0.03 0.04 0.04 0.04 0.05 0.05 0.05 0.04 0.03 0.03 0.03 0.02 0.03 0.03 0.02 0.01 0.01 0.01 0.01 0.01 0.01 0.01 0.02 0.01 0.02 0.03 0.04 0.04 0.04 0.04 0.04 0.04 0.03 0.03 0.04 0.05 0.05 0.04
0.04 0.03 0.03 0.03 0.03 0.03 0.03 0.03 0.03 0.03 0.04 0.05 0.05 0.05 0.04 0.03 0.03 0.03 0.03 0.02 0.02 0.02 0.02 0.01 0.01 0.01 0.01 0.02 0.03 0.02 0.03 0.04 0.04 0.04 0.03 0.03 0.03 0.03 0.03 0.03 0.04 0.05 0.05
0.03 0.03 0.02 0.02 0.02 0.01 0.01 0.01 0.02 0.02 0.03 0.04 0.05 0.06 0.05 0.04 0.04 0.04 0.04 0.03 0.03 0.02 0.02 0.02 0.01 0.02 0.02 0.02 0.02 0.02 0.03 0.03 0.04 0.05 0.04 0.04 0.03 0.02 0.02 0.03 0.03 0.03 0.04
0.04 0.02 0.01 0.01 0.01 0.01 0.01 0.01 0.01 0.01 0.02 0.02 0.03 0.04 0.05 0.05 0.05 0.05 0.04 0.04 0.04 0.03 0.02 0.02 0.02 0.01 0.02 0.02 0.01 0.01 0.01 0.01 0.02 0.04 0.05 0.04 0.04 0.02 0.01 0.02 0.02 0.02 0.02
0.04 0.02 0.01 0.01 0.01 0.01 0.01 0.01 0.01 0.01 0.02 0.02 0.02 0.02 0.03 0.03 0.03 0.04 0.05 0.05 0.04 0.04 0.03 0.02 0.02 0.02 0.02 0.01 0.01 0.00 0.01 0.01 0.01 0.02 0.03 0.03 0.03 0.03 0.02 0.02 0.02 0.02 0.02
0.02 0.02 0.02 0.01 0.01 0.01 0.02 0.02 0.03 0.02 0.02 0.03 0.03 0.03 0.03 0.03 0.02 0.03 0.03 0.04 0.04 0.05 0.03 0.02 0.02 0.02 0.02 0.01 0.00 0.00 0.00 0.01 0.01 0.02 0.03 0.03 0.03 0.03 0.03 0.03 0.03 0.02 0.02
0.01 0.01 0.01 0.01 0.02 0.02 0.02 0.02 0.02 0.02 0.03 0.03 0.04 0.04 0.03 0.03 0.03 0.03 0.03 0.04 0.04 0.05 0.04 0.03 0.02 0.01 0.01 0.01 0.01 0.01 0.01 0.01 0.01 0.01 0.02 0.02 0.02 0.03 0.03 0.03 0.03 0.02 0.03
0.01 0.01 0.02 0.02 0.02 0.02 0.02 0.02 0.02 0.03 0.03 0.03 0.03 0.03 0.03 0.03 0.03 0.03 0.04 0.04 0.05 0.05 0.04 0.04 0.03 0.02 0.02 0.01 0.01 0.01 0.01 0.01 0.01 0.01 0.02 0.02 0.02 0.02 0.03 0.03 0.03 0.03 0.03
0.01 0.01 0.02 0.02 0.02 0.02 0.03 0.02 0.02 0.03 0.02 0.02 0.02 0.03 0.03 0.02 0.02 0.02 0.03 0.03 0.03 0.04 0.04 0.04 0.03 0.04 0.04 0.04 0.03 0.03 0.02 0.02 0.02 0.02 0.01 0.02 0.02 0.02 0.02 0.03 0.04 0.04 0.04
0.01 0.01 0.01 0.02 0.02 0.03 0.04 0.03 0.03 0.03 0.02 0.01 0.02 0.02 0.02 0.02 0.02 0.02 0.01 0.01 0.01 0.02 0.03 0.03 0.03 0.03 0.03 0.03 0.02 0.02 0.02 0.01 0.01 0.01 0.01 0.01 0.01 0.02 0.02 0.03 0.04 0.05 0.05
0.01 0.01 0.02 0.02 0.03 0.04 0.05 0.04 0.03 0.03 0.02 0.01 0.01 0.01 0.02 0.02 0.01 0.01 0.01 0.00 0.00 0.00 0.00 0.01 0.02 0.02 0.02 0.02 0.02 0.01 0.01 0.01 0.01 0.01 0.00 0.01 0.01 0.01 0.01 0.02 0.03 0.04 0.04
0.02 0.02 0.02 0.03 0.02 0.04 0.07 0.04 0.03 0.03 0.03 0.02 0.01 0.01 0.01 0.01 0.01 0.01 0.01 0.00 0.00 0.00 0.00 0.00 0.01 0.01 0.02 0.02 0.02 0.02 0.01 0.01 0.01 0.01 0.01 0.01 0.01 0.01 0.01 0.01 0.02 0.02 0.03
0.02 0.02 0.02 0.03 0.04 0.06 0.07 0.04 0.03 0.03 0.03 0.02 0.01 0.01 0.01 0.01 0.01 0.01 0.01 0.01 0.00 0.01 0.01 0.01 0.01 0.01 0.01 0.01 0.01 0.02 0.02 0.01 0.01 0.01 0.01 0.01 0.01 0.01 0.01 0.02 0.02 0.02 0.02
0.01 0.01 0.01 0.02 0.03 0.07 0.07 0.04 0.03 0.02 0.03 0.03 0.02 0.02 0.02 0.01 0.01 0.01 0.01 0.01 0.00 0.00 0.01 0.01 0.01 0.01 0.01 0.01 0.01 0.01 0.01 0.01 0.01 0.01 0.01 0.01 0.01 0.01 0.02 0.02 0.03 0.03 0.03
0.01 0.01 0.01 0.01 0.02 0.05 0.06 0.04 0.03 0.02 0.02 0.02 0.02 0.02 0.02 0.01 0.01 0.01 0.01 0.01 0.01 0.01 0.01 0.01 0.01 0.01 0.01 0.01 0.01 0.01 0.01 0.01 0.02 0.01 0.01 0.01 0.01 0.01 0.02 0.03 0.03 0.03 0.03
0.01 0.01 0.01 0.02 0.03 0.05 0.05 0.03 0.02 0.02 0.02 0.02 0.01 0.01 0.01 0.01 0.01 0.02 0.01 0.01 0.01 0.01 0.01 0.01 0.01 0.01 0.01 0.01 0.01 0.01 0.01 0.02 0.02 0.02 0.03 0.02 0.02 0.02 0.02 0.03 0.04 0.03 0.03
0.02 0.02 0.02 0.02 0.03 0.04 0.04 0.03 0.02 0.02 0.02 0.02 0.01 0.01 0.01 0.01 0.01 0.01 0.01 0.01 0.01 0.01 0.01 0.01 0.01 0.02 0.02 0.02 0.01 0.01 0.01 0.01 0.01 0.02 0.02 0.03 0.03 0.03 0.03 0.03 0.03 0.02 0.02
MSLP
1015.70 1016.39 1017.05 1017.67 1018.21 1018.67 1019.07 1019.42 1019.74 1020.05 1020.37 1020.71 1021.07 1021.43 1021.79 1022.12 1022.43 1022.71 1022.96 1023.19 1023.41 1023.61 1023.80 1024.00 1024.19 1024.38 1024.58 1024.81 1025.06 1025.36 1025.71 1026.11 1026.56 1027.03 1027.48 1027.88 1028.21 1028.42 1028.51 1028.47 1028.31 1028.07 1027.77
1015.36 1016.08 1016.75 1017.37 1017.91 1018.37 1018.77 1019.13 1019.47 1019.81 1020.17 1020.55 1020.95 1021.36 1021.77 1022.16 1022.53 1022.87 1023.17 1023.44 1023.69 1023.91 1024.10 1024.28 1024.44 1024.60 1024.78 1024.97 1025.21 1025.50 1025.86 1026.27 1026.74 1027.23 1027.70 1028.12 1028.46 1028.69 1028.79 1028.77 1028.64 1028.43 1028.17
1015.01 1015.77 1016.47 1017.10 1017.64 1018.11 1018.51 1018.88 1019.23 1019.59 1019.96 1020.37 1020.80 1021.24 1021.69 1022.13 1022.55 1022.93 1023.29 1023.61 1023.89 1024.14 1024.35 1024.54 1024.70 1024.86 1025.01 1025.20 1025.43 1025.71 1026.07 1026.48 1026.95 1027.44 1027.92 1028.35 1028.70 1028.93 1029.05 1029.05 1028.96 1028.79 1028.59
1014.64 1015.44 1016.18 1016.83 1017.39 1017.87 1018.28 1018.65 1019.01 1019.38 1019.76 1020.18 1020.63 1021.09 1021.56 1022.03 1022.48 1022.91 1023.30 1023.67 1024.00 1024.29 1024.54 1024.76 1024.95 1025.12 1025.29 1025.48 1025.71 1025.99 1026.33 1026.74 1027.19 1027.67 1028.13 1028.55 1028.90 1029.14 1029.27 1029.31 1029.26 1029.15 1029.00
1014.22 1015.07 1015.84 1016.53 1017.11 1017.61 1018.04 1018.43 1018.80 1019.18 1019.58 1020.00 1020.45 1020.92 1021.39 1021.87 1022.34 1022.79 1023.22 1023.63 1024.01 1024.36 1024.67 1024.94 1025.18 1025.39 1025.59 1025.80 1026.03 1026.31 1026.64 1027.02 1027.44 1027.89 1028.32 1028.72 1029.05 1029.30 1029.45 1029.51 1029.51 1029.46 1029.38
1013.74 1014.62 1015.43 1016.15 1016.78 1017.31 1017.77 1018.19 1018.59 1018.99 1019.40 1019.83 1020.27 1020.73 1021.20 1021.67 1022.14 1022.61 1023.06 1023.51 1023.94 1024.34 1024.72 1025.06 1025.36 1025.63 1025.88 1026.11 1026.36 1026.63 1026.94 1027.29 1027.67 1028.08 1028.47 1028.84 1029.15 1029.39 1029.56 1029.66 1029.70 1029.70 1029.68
1013.20 1014.09 1014.93 1015.68 1016.34 1016.92 1017.43 1017.90 1018.34 1018.78 1019.21 1019.65 1020.10 1020.55 1021.00 1021.46 1021.92 1022.38 1022.85 1023.32 1023.79 1024.26 1024.70 1025.11 1025.48 1025.82 1026.12 1026.39 1026.66 1026.93 1027.22 1027.53 1027.87 1028.22 1028.57 1028.90 1029.19 1029.43 1029.61 1029.74 1029.81 1029.86 1029.90
1012.61 1013.49 1014.32 1015.09 1015.79 1016.42 1016.99 1017.52 1018.03 1018.51 1018.99 1019.46 1019.91 1020.36 1020.80 1021.23 1021.68 1022.13 1022.60 1023.09 1023.60 1024.11 1024.61 1025.09 1025.54 1025.94 1026.29 1026.61 1026.90 1027.17 1027.44 1027.72 1028.02 1028.33 1028.63 1028.93 1029.20 1029.43 1029.62 1029.77 1029.88 1029.96 1030.03
1012.01 1012.82 1013.63 1014.40 1015.12 1015.80 1016.44 1017.04 1017.62 1018.18 1018.71 1019.21 1019.69 1020.14 1020.57 1020.99 1021.42 1021.86 1022.33 1022.83 1023.36 1023.91 1024.46 1025.00 1025.51 1025.98 1026.39 1026.74 1027.06 1027.34 1027.61 1027.87 1028.14 1028.41 1028.69 1028.96 1029.21 1029.44 1029.63 1029.79 1029.92 1030.03 1030.13
1011.41 1012.14 1012.89 1013.63 1014.36 1015.08 1015.78 1016.46 1017.11 1017.74 1018.34 1018.89 1019.40 1019.87 1020.31 1020.72 1021.14 1021.57 1022.04 1022.55 1023.09 1023.67 1024.27 1024.85 1025.42 1025.94 1026.40 1026.80 1027.15 1027.46 1027.73 1027.99 1028.24 1028.50 1028.76 1029.02 1029.26 1029.48 1029.68 1029.85 1029.99 1030.11 1030.22
1010.87 1011.48 1012.14 1012.84 1013.56 1014.29 1015.03 1015.78 1016.50 1017.20 1017.86 1018.47 1019.02 1019.52 1019.98 1020.40 1020.82 1021.26 1021.72 1022.24 1022.80 1023.40 1024.03 1024.65 1025.26 1025.83 1026.34 1026.79 1027.18 1027.52 1027.82 1028.09 1028.36 1028.62 1028.87 1029.13 1029.37 1029.60 1029.80 1029.97 1030.12 1030.23 1030.33
1010.41 1010.89 1011.44 1012.07 1012.75 1013.48 1014.25 1015.03 1015.81 1016.56 1017.28 1017.94 1018.54 1019.07 1019.56 1020.01 1020.44 1020.89 1021.37 1021.90 1022.48 1023.10 1023.75 1024.41 1025.05 1025.66 1026.22 1026.72 1027.15 1027.53 1027.87 1028.18 1028.47 1028.75 1029.03 1029.29 1029.55 1029.78 1029.98 1030.15 1030.29 1030.40 1030.48
1010.07 1010.41 1010.85 1011.39 1012.01 1012.71 1013.47 1014.26 1015.06 1015.85 1016.60 1017.31 1017.94 1018.52 1019.04 1019.53 1020.00 1020.47 1020.98 1021.53 1022.13 1022.77 1023.44 1024.12 1024.80 1025.44 1026.04 1026.58 1027.06 1027.49 1027.87 1028.23 1028.56 1028.88 1029.18 1029.47 1029.74 1029.98 1030.19 1030.36 1030.49 1030.59 1030.66
1009.89 1010.09 1010.41 1010.85 1011.39 1012.03 1012.75 1013.51 1014.31 1015.10 1015.86 1016.59 1017.26 1017.87 1018.43 1018.96 1019.47 1019.99 1020.53 1021.11 1021.74 1022.40 1023.09 1023.79 1024.48 1025.15 1025.78 1026.35 1026.88 1027.35 1027.79 1028.20 1028.58 1028.94 1029.28 1029.59 1029.88 1030.14 1030.35 1030.53 1030.66 1030.75 1030.81
1009.87 1009.95 1010.16 1010.50 1010.95 1011.51 1012.16 1012.86 1013.61 1014.36 1015.11 1015.83 1016.51 1017.15 1017.75 1018.32 1018.88 1019.44 1020.03 1020.64 1021.29 1021.97 1022.67 1023.38 1024.08 1024.76 1025.41 1026.01 1026.57 1027.09 1027.58 1028.03 1028.46 1028.86 1029.24 1029.59 1029.90 1030.18 1030.40 1030.59 1030.72 1030.82 1030.88
1010.04 1010.04 1010.15 1010.38 1010.73 1011.19 1011.74 1012.35 1013.02 1013.71 1014.41 1015.10 1015.76 1016.41 1017.03 1017.63 1018.23 1018.84 1019.46 1020.11 1020.78 1021.47 1022.18 1022.88 1023.58 1024.26 1024.91 1025.53 1026.11 1026.66 1027.17 1027.67 1028.13 1028.57 1028.99 1029.37 1029.72 1030.02 1030.27 1030.47 1030.63 1030.75 1030.83
1010.41 1010.34 1010.37 1010.51 1010.75 1011.10 1011.53 1012.03 1012.58 1013.18 1013.80 1014.43 1015.06 1015.68 1016.31 1016.93 1017.56 1018.19 1018.84 1019.51 1020.19 1020.88 1021.57 1022.27 1022.95 1023.61 1024.25 1024.87 1025.46 1026.02 1026.56 1027.08 1027.58 1028.06 1028.50 1028.92 1029.29 1029.63 1029.92 1030.16 1030.36 1030.52 1030.65
1010.95 1010.84 1010.81 1010.86 1011.01 1011.23 1011.54 1011.91 1012.33 1012.81 1013.33 1013.87 1014.44 1015.03 1015.63 1016.25 1016.88 1017.52 1018.17 1018.84 1019.51 1020.18 1020.86 1021.52 1022.17 1022.81 1023.43 1024.03 1024.62 1025.19 1025.74 1026.28 1026.80 1027.30 1027.78 1028.23 1028.64 1029.02 1029.35 1029.65 1029.90 1030.13 1030.32
1011.64 1011.50 1011.43 1011.41 1011.46 1011.57 1011.74 1011.98 1012.27 1012.62 1013.02 1013.46 1013.95 1014.48 1015.03 1015.62 1016.22 1016.84 1017.48 1018.12 1018.76 1019.39 1020.03 1020.65 1021.26 1021.86 1022.45 1023.03 1023.61 1024.18 1024.74 1025.29 1025.83 1026.36 1026.86 1027.35 1027.80 1028.22 1028.61 1028.97 1029.30 1029.60 1029.87
1012.42 1012.28 1012.17 1012.09 1012.05 1012.06 1012.11 1012.22 1012.38 1012.60 1012.88 1013.22 1013.61 1014.05 1014.54 1015.06 1015.61 1016.19 1016.77 1017.36 1017.94 1018.53 1019.10 1019.67 1020.24 1020.80 1021.35 1021.92 1022.48 1023.05 1023.61 1024.18 1024.74 1025.29 1025.82 1026.34 1026.83 1027.31 1027.76 1028.19 1028.60 1028.98 1029.34
1013.23 1013.10 1012.96 1012.84 1012.73 1012.64 1012.59 1012.58 1012.63 1012.73 1012.89 1013.12 1013.41 1013.76 1014.16 1014.60 1015.07 1015.56 1016.07 1016.59 1017.10 1017.61 1018.12 1018.63 1019.14 1019.66 1020.19 1020.73 1021.29 1021.86 1022.43 1023.01 1023.59 1024.16 1024.72 1025.27 1025.81 1026.33 1026.84 1027.34 1027.83 1028.31 1028.76
1014.01 1013.88 1013.73 1013.57 1013.40 1013.25 1013.12 1013.02 1012.96 1012.96 1013.03 1013.15 1013.34 1013.59 1013.89 1014.23 1014.61 1015.00 1015.41 1015.83 1016.26 1016.68 1017.12 1017.56 1018.03 1018.51 1019.01 1019.54 1020.10 1020.67 1021.26 1021.85 1022.45 1023.04 1023.63 1024.21 1024.79 1025.35 1025.92 1026.48 1027.03 1027.59 1028.12
1014.69 1014.56 1014.40 1014.22 1014.02 1013.82 1013.63 1013.47 1013.34 1013.27 1013.25 1013.29 1013.39 1013.54 1013.74 1013.97 1014.24 1014.52 1014.82 1015.14 1015.46 1015.80 1016.15 1016.54 1016.95 1017.40 1017.88 1018.40 1018.96 1019.54 1020.14 1020.75 1021.36 1021.98 1022.59 1023.19 1023.79 1024.39 1024.99 1025.60 1026.21 1026.82 1027.42
1015.22 1015.10 1014.93 1014.74 1014.52 1014.30 1014.08 1013.89 1013.73 1013.60 1013.53 1013.50 1013.52 1013.59 1013.68 1013.82 1013.97 1014.14 1014.32 1014.53 1014.75 1015.00 1015.28 1015.60 1015.96 1016.38 1016.84 1017.36 1017.91 1018.50 1019.11 1019.73 1020.35 1020.98 1021.59 1022.21 1022.82 1023.44 1024.07 1024.71 1025.36 1026.01 1026.65
1015.58 1015.46 1015.30 1015.11 1014.90 1014.67 1014.46 1014.26 1014.08 1013.94 1013.83 1013.75 1013.71 1013.70 1013.71 1013.75 1013.79 1013.86 1013.93 1014.03 1014.16 1014.32 1014.53 1014.79 1015.11 1015.49 1015.93 1016.43 1016.98 1017.56 1018.16 1018.78 1019.41 1020.03 1020.64 1021.26 1021.87 1022.49 1023.13 1023.78 1024.44 1025.12 1025.79
1015.77 1015.66 1015.51 1015.34 1015.14 1014.94 1014.75 1014.56 1014.39 1014.24 1014.12 1014.01 1013.93 1013.86 1013.80 1013.75 1013.71 1013.67 1013.66 1013.66 1013.70 1013.79 1013.93 1014.13 1014.40 1014.75 1015.16 1015.63 1016.16 1016.72 1017.31 1017.91 1018.51 1019.11 1019.71 1020.31 1020.91 1021.53 1022.16 1022.80 1023.47 1024.15 1024.83
Thickness
5672 5670 5669 5667 5666 5664 5662 5660 5659 5657 5656 5655 5654 5653 5652 5652 5651 5651 5650 5650 5649 5648 5648 5648 5648 5648 5648 5648 5648 5647 5647 5646 5642 5641 5642 5644 5644 5644 5644 5644 5645 5645 5645
5667 5665 5664 5662 5661 5659 5657 5656 5655 5652 5651 5650 5649 5647 5647 5647 5646 5645 5644 5644 5643 5642 5642 5642 5642 5643 5643 5643 5642 5642 5642 5642 5640 5638 5637 5638 5639 5639 5639 5639 5639 5640 5640
5661 5659 5657 5656 5654 5653 5652 5651 5650 5648 5646 5644 5643 5642 5641 5641 5641 5640 5640 5639 5638 5637 5637 5637 5637 5637 5637 5637 5637 5637 5637 5638 5637 5635 5633 5633 5633 5633 5633 5633 5633 5633 5634
5654 5653 5651 5649 5648 5647 5646 5645 5644 5643 5640 5639 5638 5637 5636 5636 5636 5635 5634 5633 5632 5632 5632 5632 5632 5632 5632 5632 5632 5631 5631 5631 5630 5629 5628 5627 5627 5627 5626 5626 5625 5626 5627
5648 5646 5645 5644 5643 5641 5640 5639 5638 5637 5635 5633 5632 5631 5631 5631 5631 5630 5628 5627 5626 5625 5625 5626 5627 5627 5628 5628 5628 5627 5626 5624 5623 5623 5621 5621 5620 5619 5619 5620 5619 5619 5620
5642 5640 5639 5637 5636 5635 5633 5632 5631 5630 5629 5627 5626 5625 5625 5625 5626 5625 5623 5621 5620 5619 5618 5619 5620 5621 5622 5623 5624 5623 5623 5621 5618 5617 5615 5615 5615 5615 5615 5615 5613 5611 5612
5635 5633 5632 5631 5629 5628 5627 5626 5624 5623 5622 5620 5619 5619 5619 5619 5620 5620 5619 5616 5615 5614 5613 5613 5614 5615 5615 5615 5616 5617 5617 5618 5618 5616 5612 5612 5611 5612 5610 5609 5608 5607 5607
5628 5627 5626 5624 5622 5621 5620 5619 5618 5617 5615 5614 5613 5613 5613 5614 5614 5614 5613 5611 5609 5609 5608 5608 5607 5607 5609 5609 5608 5607 5607 5609 5610 5610 5610 5609 5609 5609 5608 5607 5605 5602 5602
5622 5620 5619 5618 5616 5614 5613 5611 5611 5610 5608 5608 5608 5607 5607 5607 5608 5608 5607 5605 5604 5603 5603 5603 5602 5602 5603 5603 5601 5600 5599 5600 5601 5602 5603 5603 5603 5603 5602 5599 5597 5595 5594
5616 5615 5613 5612 5610 5608 5606 5605 5605 5604 5603 5602 5601 5601 5601 5601 5602 5602 5601 5600 5597 5597 5596 5597 5597 5597 5597 5597 5595 5593 5592 5592 5593 5594 5594 5595 5595 5595 5595 5594 5593 5589 5587
5611 5609 5607 5605 5603 5602 5601 5600 5599 5598 5597 5596 5595 5595 5595 5595 5595 5595 5595 5594 5592 5590 5590 5589 5590 5591 5591 5590 5589 5587 5587 5586 5585 5585 5585 5585 5586 5586 5586 5586 5586 5584 5582
5604 5601 5600 5598 5597 5596 5594 5593 5592 5591 5589 5588 5588 5587 5588 5588 5588 5588 5589 5588 5587 5584 5583 5583 5583 5583 5583 5582 5581 5581 5580 5578 5576 5575 5575 5575 5575 5576 5577 5578 5577 5577 5577
5596 5594 5592 5591 5590 5589 5587 5586 5584 5583 5582 5582 5581 5581 5580 5580 5581 5581 5582 5581 5580 5578 5578 5577 5576 5575 5574 5573 5572 5571 5570 5568 5566 5565 5565 5565 5566 5567 5567 5568 5568 5567 5567
5588 5586 5584 5583 5582 5581 5580 5579 5577 5577 5576 5576 5575 5574 5574 5573 5572 5573 5573 5572 5572 5570 5569 5569 5568 5566 5564 5563 5562 5561 5559 5558 5557 5556 5556 5555 5555 5556 5556 5557 5556 5556 5555
5580 5579 5577 5576 5574 5573 5572 5572 5571 5572 5572 5571 5570 5569 5568 5567 5568 5568 5567 5566 5565 5563 5561 5558 5556 5554 5553 5551 5550 5550 5549 5548 5547 5546 5546 5545 5545 5545 5545 5546 5545 5545 5544
5573 5571 5569 5567 5566 5565 5564 5564 5564 5565 5566 5566 5566 5564 5564 5563 5563 5561 5560 5559 5558 5556 5552 5549 5546 5544 5543 5542 5540 5539 5539 5538 5537 5537 5536 5535 5535 5535 5535 5535 5535 5534 5534
5566 5563 5561 5560 5558 5557 5556 5555 5554 5555 5556 5557 5557 5557 5557 5556 5555 5553 5552 5550 5548 5546 5542 5540 5537 5536 5534 5533 5532 5531 5530 5530 5528 5527 5526 5526 5525 5525 5525 5524 5524 5523 5523
5558 5557 5555 5552 5551 5550 5550 5549 5548 5547 5546 5547 5548 5548 5548 5548 5546 5545 5543 5540 5537 5535 5533 5531 5529 5528 5526 5525 5523 5522 5521 5520 5519 5518 5517 5516 5515 5515 5514 5513 5513 5512 5512
5550 5548 5547 5545 5544 5543 5543 5542 5542 5541 5540 5540 5540 5540 5540 5539 5538 5536 5534 5532 5529 5527 5525 5523 5521 5519 5518 5516 5515 5514 5512 5511 5510 5509 5508 5507 5505 5504 5504 5503 5503 5502 5501
5542 5542 5540 5538 5537 5536 5536 5536 5535 5535 5534 5533 5533 5533 5532 5529 5527 5526 5524 5523 5521 5519 5517 5516 5514 5512 5510 5508 5506 5505 5503 5502 5501 5499 5498 5497 5496 5494 5494 5493 5493 5492 5491
5535 5534 5534 5531 5529 5529 5530 5529 5529 5529 5528 5527 5527 5527 5525 5522 5521 5519 5517 5515 5513 5511 5510 5508 5506 5504 5502 5500 5499 5497 5495 5494 5493 5491 5490 5488 5487 5486 5485 5484 5483 5482 5481
5527 5526 5524 5523 5522 5522 5522 5522 5522 5522 5521 5520 5519 5518 5517 5515 5513 5511 5509 5508 5506 5504 5502 5500 5498 5496 5495 5493 5491 5490 5488 5487 5485 5483 5482 5480 5479 5477 5476 5474 5473 5471 5471
5520 5518 5517 5516 5515 5516 5515 5515 5514 5514 5513 5512 5511 5510 5508 5507 5505 5503 5502 5500 5498 5496 5494 5492 5490 5488 5487 5485 5484 5483 5481 5480 5478 5476 5474 5472 5470 5469 5467 5465 5464 5463 5461
5512 5511 5509 5508 5508 5507 5506 5506 5506 5505 5505 5504 5503 5502 5501 5499 5498 5496 5494 5492 5490 5488 5486 5484 5482 5481 5479 5478 5477 5475 5474 5473 5471 5469 5467 5465 5463 5461 5459 5457 5455 5454 5452
5505 5503 5502 5501 5500 5499 5498 5498 5497 5497 5496 5496 5496 5495 5494 5492 5490 5488 5486 5484 5482 5480 5479 5477 5475 5474 5472 5471 5470 5469 5467 5466 5464 5462 5460 5458 5455 5453 5451 5449 5447 5445 5444
5498 5496 5494 5493 5492 5491 5490 5490 5489 5488 5488 5488 5488 5487 5486 5484 5483 5481 5478 5476 5474 5472 5471 5469 5468 5467 5466 5464 5463 5462 5460 5459 5457 5454 5452 5450 5448 5445 5443 5441 5440 5438 5436